Regional Weather Roundup
Issued by NWS

Home | Current Version | Previous Version | Graphics & Text | Print | Product List | Glossary On
Versions: 1 2 3 4 5 6 7 8 9 10 11 12 13 14 15 16 17 18 19 20 21 22 23 24 25 26 27
000
ASUS45 KSLC 241210
RWRUT

UTAH REGIONAL WEATHER ROUNDUP
NATIONAL WEATHER SERVICE SALT LAKE CITY UT
500 AM MST SAT FEB 24 2018

UTZ001>011-023>025-241300-

NORTHERN UTAH

CITY           SKY/WX    TMP DP  RH WIND       PRES   REMARKS
BRIGHAM CITY   CLOUDY    19  11  73 CALM      30.14S
HILL AFB       MOCLDY    16  14  93 S6        30.12S WCI   7
LOGAN          CLOUDY    11   4  73 CALM      30.12F
OGDEN          MOCLDY    15  11  83 S10       30.12F WCI   2
SALT LAKE CITY PTCLDY    14  10  84 SE8       30.16S WCI   3
WENDOVER       CLOUDY    19   9  65 SW5       30.15F WCI  12
HEBER CITY       N/A      0  -6  78 CALM      30.08S
WEST JORDAN    CLEAR      6   3  85 SW8       30.15S WCI  -7

$$

UTZ011>015-024>027-241300-

CENTRAL/NORTHEAST UTAH

CITY           SKY/WX    TMP DP  RH WIND       PRES   REMARKS
PROVO AIRPORT  PTCLDY     7   4  87 SE3       30.19R
MOAB/CANYONLAN CLEAR     21   6  52 W12       30.06R WCI   9
DELTA            N/A     -4  -8  84 SE5       30.17S VSB 1/4 WCI -15
PRICE          CLEAR     15   3  59 NW7       30.00S WCI   5
RICHFIELD      CLEAR     10   5  79 CALM      30.15S
VERNAL         FLURRIES  10   8  92 CALM      30.00S

$$

UTZ013>016-019>022-027-241300-

SOUTHERN UTAH

CITY           SKY/WX    TMP DP  RH WIND       PRES   REMARKS
BRYCE CANYON   PTCLDY     0  -3  87 NW8       30.03R WCI -14
CEDAR CITY     PTCLDY     4   1  88 SE6       30.13S WCI  -7
MILFORD        CLEAR      1  -2  87 S8        30.17S WCI -13
ST GEORGE      SUNNY     26  20  77 S3        30.26R
HANKSVILLE     CLEAR     21   3  45 W6        30.13R WCI  14
KANAB          CLEAR     10   5  79 N6        30.20S WCI   1
BLANDING         N/A     17  15  94 CALM      30.09R

$$

REGIONAL REPORTS     COLORADO/ARIZONA

CITY           SKY/WX    TMP DP  RH WIND       PRES   REMARKS
CRAIG, CO      CLOUDY    11   7  84 NW5       29.95R WCI   3
GRAND JUNCTION CLEAR     20  13  74 N5        30.01S WCI  13
RIFLE, CO      CLOUDY    21  11  65 W6        29.97R WCI  13
MONTROSE, CO   PTCLDY    17   9  70 NW3       30.00R
CORTEZ, CO     MOCLDY    19  12  74 CALM      30.03R
COLORADO CITY    N/A     12   9  85 E9        30.20R WCI   0
PAGE, AZ       PTCLDY    27   7  42 W6        30.13R WCI  20
GRAND CANYON   PTCLDY   -12 -16  82 NE6       30.10R WCI -26
KINGMAN, AZ    CLEAR     22  19  89 E6        30.22R WCI  14
FLAGSTAFF, AZ  PTCLDY     4   1  88 CALM      30.05R

$$

REGIONAL REPORTS    NEVADA/IDAHO/WYOMING

CITY           SKY/WX    TMP DP  RH WIND       PRES   REMARKS
LAS VEGAS, NV  CLEAR     36   6  28 E3        30.27S
ELY, NY        PTCLDY    -2  -8  76 S13       30.15S WCI -20
ELKO, NV       CLOUDY    15   7  70 CALM      30.16F
POCATELLO, ID  PTCLDY    20  10  65 SW18      30.07S WCI   5
BURLEY, ID     PTCLDY    19   9  65 W15       30.07F WCI   5
EVANSTON, WY   MOCLDY     5   2  87 SW8       29.95F WCI  -8
ROCK SPRINGS,  CLEAR      4  -2  76 SW21      29.90S WCI -17

$$




USA.gov is the U.S. government's official web portal to all federal, state and local government web resources and services.